Total_Precipitation_Accumulation
0.02 0.05 0.09 0.12 0.11 0.08 0.05 0.04 0.05 0.06 0.08 0.07 0.08 0.10 0.10 0.07 0.05 0.04 0.05 0.06 0.07 0.11 0.11 0.11 0.13 0.16 0.20 0.22 0.21 0.23 0.29 0.32 0.34 0.29 0.27 0.26 0.26 0.26 0.27 0.25 0.25 0.30 0.34 0.33
0.03 0.05 0.07 0.09 0.10 0.06 0.04 0.04 0.04 0.05 0.07 0.07 0.10 0.14 0.10 0.05 0.05 0.09 0.13 0.10 0.10 0.14 0.16 0.15 0.17 0.23 0.26 0.28 0.30 0.38 0.46 0.52 0.55 0.56 0.53 0.48 0.44 0.39 0.40 0.42 0.48 0.52 0.53 0.54
0.05 0.06 0.07 0.11 0.09 0.07 0.07 0.06 0.05 0.07 0.09 0.10 0.15 0.19 0.15 0.11 0.10 0.12 0.11 0.10 0.12 0.18 0.24 0.24 0.25 0.25 0.26 0.28 0.34 0.45 0.53 0.54 0.56 0.57 0.56 0.58 0.60 0.59 0.57 0.59 0.62 0.64 0.64 0.66
0.09 0.09 0.15 0.14 0.10 0.10 0.10 0.09 0.10 0.13 0.17 0.17 0.16 0.19 0.20 0.15 0.13 0.12 0.12 0.13 0.14 0.19 0.25 0.29 0.30 0.30 0.34 0.41 0.47 0.52 0.56 0.58 0.61 0.64 0.68 0.69 0.65 0.59 0.58 0.59 0.60 0.60 0.60 0.61
0.18 0.17 0.16 0.14 0.16 0.18 0.16 0.17 0.18 0.23 0.25 0.27 0.24 0.25 0.28 0.25 0.22 0.19 0.18 0.21 0.19 0.22 0.29 0.33 0.39 0.40 0.39 0.45 0.53 0.55 0.55 0.60 0.67 0.74 0.78 0.68 0.58 0.57 0.57 0.57 0.53 0.49 0.47 0.50
0.27 0.29 0.30 0.21 0.26 0.25 0.25 0.33 0.29 0.34 0.35 0.34 0.37 0.48 0.50 0.35 0.28 0.23 0.20 0.19 0.20 0.24 0.27 0.30 0.38 0.44 0.46 0.46 0.49 0.51 0.53 0.55 0.58 0.61 0.70 0.74 0.66 0.65 0.64 0.64 0.58 0.53 0.48 0.50
0.34 0.36 0.33 0.29 0.29 0.28 0.43 0.50 0.47 0.45 0.44 0.47 0.48 0.46 0.45 0.36 0.28 0.24 0.20 0.18 0.18 0.19 0.20 0.23 0.27 0.32 0.35 0.36 0.37 0.37 0.36 0.36 0.39 0.45 0.51 0.54 0.58 0.60 0.62 0.62 0.59 0.56 0.51 0.49
0.42 0.56 0.59 0.45 0.37 0.43 0.55 0.53 0.57 0.52 0.44 0.45 0.49 0.50 0.47 0.38 0.29 0.21 0.16 0.14 0.12 0.12 0.14 0.16 0.19 0.26 0.30 0.30 0.28 0.28 0.29 0.30 0.33 0.35 0.37 0.37 0.45 0.50 0.54 0.56 0.55 0.53 0.50 0.46
0.58 0.66 0.59 0.49 0.50 0.52 0.51 0.52 0.47 0.46 0.47 0.44 0.42 0.43 0.39 0.31 0.26 0.21 0.16 0.12 0.09 0.08 0.09 0.11 0.15 0.22 0.27 0.27 0.27 0.28 0.29 0.31 0.31 0.30 0.30 0.33 0.38 0.40 0.41 0.44 0.42 0.38 0.35 0.39
0.67 0.72 0.65 0.55 0.49 0.45 0.44 0.41 0.41 0.40 0.44 0.46 0.41 0.40 0.39 0.34 0.24 0.20 0.16 0.12 0.08 0.08 0.10 0.12 0.12 0.14 0.17 0.20 0.24 0.27 0.28 0.28 0.27 0.28 0.30 0.35 0.42 0.44 0.46 0.44 0.38 0.32 0.31 0.36
0.69 0.81 0.80 0.68 0.53 0.47 0.50 0.51 0.48 0.46 0.42 0.39 0.38 0.43 0.47 0.40 0.25 0.14 0.12 0.10 0.10 0.11 0.13 0.13 0.11 0.10 0.10 0.15 0.23 0.31 0.32 0.30 0.28 0.29 0.32 0.34 0.38 0.41 0.37 0.37 0.30 0.28 0.30 0.38
0.62 0.71 0.76 0.74 0.60 0.56 0.60 0.61 0.55 0.50 0.44 0.37 0.39 0.38 0.31 0.26 0.19 0.13 0.11 0.12 0.14 0.17 0.17 0.15 0.12 0.11 0.12 0.18 0.28 0.38 0.39 0.32 0.29 0.30 0.33 0.36 0.36 0.36 0.30 0.21 0.19 0.18 0.19 0.24
0.42 0.56 0.60 0.59 0.56 0.54 0.54 0.52 0.50 0.51 0.42 0.33 0.32 0.31 0.22 0.18 0.17 0.15 0.13 0.16 0.22 0.26 0.20 0.15 0.12 0.11 0.12 0.17 0.25 0.34 0.37 0.33 0.29 0.28 0.31 0.31 0.31 0.35 0.38 0.32 0.17 0.13 0.15 0.16
0.45 0.47 0.48 0.42 0.42 0.43 0.45 0.45 0.42 0.42 0.38 0.29 0.23 0.18 0.16 0.14 0.13 0.12 0.16 0.27 0.33 0.26 0.16 0.12 0.11 0.11 0.14 0.18 0.24 0.30 0.32 0.31 0.29 0.30 0.31 0.29 0.27 0.29 0.35 0.43 0.41 0.31 0.22 0.17
0.38 0.34 0.35 0.31 0.31 0.28 0.30 0.30 0.27 0.28 0.26 0.22 0.18 0.14 0.11 0.11 0.13 0.16 0.24 0.34 0.29 0.18 0.12 0.10 0.11 0.13 0.16 0.19 0.23 0.29 0.29 0.25 0.22 0.21 0.24 0.26 0.27 0.29 0.33 0.37 0.44 0.50 0.42 0.25
0.33 0.32 0.27 0.25 0.29 0.25 0.22 0.23 0.20 0.17 0.16 0.16 0.14 0.11 0.10 0.10 0.13 0.19 0.26 0.29 0.26 0.17 0.12 0.11 0.11 0.14 0.16 0.19 0.22 0.23 0.22 0.21 0.15 0.12 0.15 0.23 0.29 0.31 0.32 0.36 0.43 0.53 0.50 0.34
0.28 0.24 0.20 0.21 0.24 0.22 0.17 0.17 0.16 0.13 0.12 0.12 0.11 0.09 0.08 0.09 0.13 0.21 0.23 0.19 0.15 0.10 0.09 0.10 0.11 0.13 0.15 0.19 0.20 0.20 0.17 0.15 0.13 0.09 0.15 0.24 0.29 0.30 0.31 0.38 0.47 0.56 0.52 0.34
0.22 0.18 0.15 0.14 0.14 0.14 0.13 0.13 0.11 0.10 0.09 0.08 0.06 0.06 0.06 0.08 0.16 0.25 0.22 0.17 0.13 0.08 0.06 0.06 0.07 0.10 0.15 0.15 0.16 0.17 0.16 0.16 0.15 0.14 0.21 0.26 0.25 0.32 0.42 0.50 0.55 0.60 0.55 0.41
0.18 0.15 0.12 0.10 0.09 0.08 0.07 0.06 0.05 0.05 0.05 0.04 0.04 0.04 0.04 0.06 0.12 0.20 0.18 0.18 0.18 0.13 0.09 0.05 0.07 0.10 0.14 0.11 0.12 0.17 0.22 0.21 0.19 0.21 0.27 0.27 0.29 0.38 0.50 0.56 0.57 0.59 0.58 0.58
0.12 0.09 0.06 0.06 0.05 0.05 0.04 0.04 0.03 0.02 0.02 0.01 0.01 0.01 0.01 0.03 0.07 0.16 0.16 0.17 0.19 0.16 0.11 0.07 0.07 0.09 0.11 0.09 0.11 0.14 0.18 0.21 0.20 0.20 0.22 0.26 0.32 0.35 0.41 0.46 0.49 0.51 0.54 0.56
0.09 0.06 0.05 0.04 0.03 0.02 0.02 0.01 0.01 0.01 0.00 0.00 0.01 0.01 0.01 0.02 0.05 0.13 0.23 0.23 0.18 0.13 0.11 0.11 0.07 0.07 0.07 0.09 0.12 0.15 0.19 0.21 0.22 0.23 0.22 0.24 0.29 0.35 0.41 0.45 0.49 0.50 0.50 0.53
0.05 0.04 0.02 0.01 0.01 0.01 0.00 0.00 0.00 0.01 0.00 0.00 0.01 0.01 0.02 0.04 0.06 0.11 0.20 0.26 0.22 0.21 0.14 0.11 0.08 0.08 0.08 0.08 0.11 0.17 0.20 0.24 0.28 0.32 0.31 0.30 0.33 0.40 0.45 0.46 0.47 0.47 0.50 0.53
0.03 0.02 0.01 0.01 0.00 0.00 0.00 0.00 0.00 0.00 0.01 0.01 0.01 0.02 0.03 0.06 0.09 0.13 0.17 0.19 0.21 0.27 0.20 0.15 0.13 0.11 0.10 0.10 0.14 0.21 0.22 0.23 0.27 0.31 0.32 0.31 0.30 0.34 0.38 0.38 0.44 0.46 0.49 0.54
0.04 0.02 0.01 0.01 0.01 0.01 0.01 0.01 0.01 0.02 0.02 0.03 0.03 0.04 0.06 0.09 0.12 0.14 0.17 0.19 0.22 0.23 0.21 0.23 0.19 0.16 0.14 0.15 0.21 0.24 0.25 0.25 0.25 0.25 0.25 0.24 0.25 0.28 0.36 0.40 0.40 0.40 0.42 0.46
0.04 0.03 0.02 0.02 0.02 0.02 0.03 0.03 0.04 0.05 0.05 0.06 0.06 0.06 0.09 0.15 0.21 0.24 0.25 0.23 0.24 0.23 0.23 0.25 0.21 0.22 0.22 0.24 0.24 0.25 0.26 0.29 0.31 0.30 0.27 0.28 0.32 0.36 0.39 0.37 0.34 0.31 0.33 0.38
0.03 0.03 0.03 0.04 0.04 0.05 0.05 0.06 0.09 0.11 0.12 0.13 0.14 0.14 0.16 0.19 0.24 0.31 0.34 0.33 0.30 0.27 0.26 0.26 0.23 0.22 0.22 0.24 0.28 0.30 0.30 0.33 0.36 0.37 0.36 0.37 0.43 0.45 0.36 0.28 0.25 0.26 0.29 0.32
0.04 0.05 0.06 0.07 0.07 0.07 0.08 0.10 0.13 0.16 0.18 0.21 0.23 0.24 0.28 0.32 0.36 0.36 0.35 0.33 0.30 0.30 0.30 0.26 0.22 0.19 0.17 0.18 0.21 0.22 0.24 0.29 0.35 0.42 0.45 0.44 0.43 0.41 0.33 0.26 0.24 0.25 0.30 0.33